Starlink 30237

operational
NORAD ID: 57437 Int'l Des: 2023-105 Owner: SPXS Country: US Constellation: starlink
LEOCIRCULAR

About Starlink 30237

Description loading...

Live Position

Loading 3D Globe...

Upcoming Passes

Altitude History

Altitude vs Time

uPlot chart will show altitude changes over time

Two-Line Element Set

1 57437U 23105H 25303.16088527 .00011461 00000-0 86269-3 0 9994
2 57437 43.0044 251.0803 0001349 285.0419 75.0274 15.02509276125929
Epoch: Oct 30, 2025 • Age: 21 hours

Current Status

Altitude 560.6 km
Velocity 7.59 km/s
Sub-Earth Point 32.40°N, 123.13°W
Launch Date Jul 24, 2023
Age 2.2 years
Type internet

Technical Details

Classification Payload
Mass 730.00 kg
Dry Mass 700.00 kg
Total Mass 730.00 kg
Length 0.30 m
Diameter 4.10 m
Span 29.00 m
Shape Box + pan
Manufacturer SPXS
Bus Type Starlink V2M
Phase Status In Orbit
Owner/State SPXS/US

Large Constellations

Loading constellations...